Regional Weather Roundup
Issued by NWS Cleveland, OH

Home | Current Version | Previous Version | Graphics & Text | Print | Product List | Glossary On
Versions: 1 2 3 4 5 6 7 8 9 10 11 12 13 14 15 16 17 18 19 20 21 22 23 24 25 26 27 28 29 30 31 32 33 34 35 36 37 38 39 40 41 42 43 44 45 46 47 48 49 50
000
ASUS41 KCLE 221600
RWRCLE
OHIO REGIONAL WEATHER ROUNDUP
NATIONAL WEATHER SERVICE WILMINGTON, OH
1100 AM EST SUN JAN 22 2017

NOTE: "FAIR" INDICATES FEW OR NO CLOUDS BELOW 12,000 FEET WITH NO
SIGNIFICANT WEATHER AND/OR OBSTRUCTIONS TO VISIBILITY.

OHZ001>008-015>018-024>027-034-035-043-044-221700-
   NORTHWEST OHIO

CITY           SKY/WX    TMP DP  RH WIND       PRES   REMARKS
DEFIANCE       CLOUDY    50  47  89 E5        29.61F
FINDLAY        FAIR      57  51  80 SE6       29.60S
TOLEDO EXPRESS FAIR      48  48 100 CALM      29.62S FOG
TOLEDO EXEC    CLOUDY    55  53  93 S6        29.63R
LIMA           FAIR      59  54  83 SE8       29.60S
$$

OHZ009>014-019>023-028>033-038-089-221700-
   NORTHEAST OHIO

CITY           SKY/WX    TMP DP  RH WIND       PRES   REMARKS
CLE-HOPKINS    PTSUNNY   59  50  72 S5        29.66F
CLE-LAKEFRONT  FAIR      55  50  83 SE5       29.63F
CUY CO. ARPT   PTSUNNY   59  52  77 S7        29.65F
LORAIN-ELYRIA  FAIR      54  48  80 S6        29.64F
ASHTABULA      CLOUDY    55  52  89 SE5       29.67F
AKRON-CANTON   PTSUNNY   57  50  77 SE7       29.64F
WOOSTER        NOT AVBL
MANSFIELD      CLOUDY    57  49  74 E5        29.63S
YOUNGSTOWN     PTSUNNY   53  50  89 E8        29.66F
$$

OHZ042-051>053-060>062-070>072-077>081-221700-
  SOUTHWEST OHIO

CITY           SKY/WX    TMP DP  RH WIND       PRES   REMARKS
CINC-COVINGTON CLOUDY    54  51  90 NE7       29.56S
CINC-LUNKEN    FAIR      51  50  96 CALM      29.57F
HAMILTON       FAIR      54  52  93 NE3       29.59S
DAYTON         NOT AVBL
WRIGHT-PAT AFB FAIR      51  51 100 CALM      29.60S
DAYTON GENERAL FAIR      54  51  90 NE8       29.58S
WILMINGTON     FAIR      54  52  93 NE9       29.59R
$$

OHZ036-037-039>041-045>050-054>059-063>069-073>076-082>088-221700-
  CENTRAL AND SOUTHEAST OHIO

CITY           SKY/WX    TMP DP  RH WIND       PRES   REMARKS
COLUMBUS       CLOUDY    55  50  83 CALM      29.61R
OSU AIRPORT    PTSUNNY   54  52  93 NE5       29.60S
BOLTON FIELD   NOT AVBL
RICKENBACK AFB NOT AVBL
NEWARK         FAIR      54  50  86 NE5       29.61R
MARION         FAIR      57  51  80 E3        29.62F
LANCASTER      FAIR      59  51  75 VRB3      29.61S
ZANESVILLE     PTSUNNY   58  49  72 E5        29.61F
NEW PHILLY     FAIR      54  52  93 CALM      29.63F
$$



USA.gov is the U.S. government's official web portal to all federal, state and local government web resources and services.